EW3608 Weather Reports


time (UTC)temp
C
wind
direction
speed
KPH
gust
KPH
rain 1hr
cm
rain 24hr
cm
rain mn
cm
humidity
%
barometer
mb
20260509013513 18 92 0.0 3.2 0.00 0.00 0.00 41 1013.5
20260509013037 18 71 0.0 3.2 0.00 0.00 0.00 40 1013.5
20260509012506 19 110 0.0 4.8 0.00 0.00 0.00 41 1013.5
20260509012007 19 101 1.6 4.8 0.00 0.00 0.00 39 1013.5
20260509011520 19 102 0.0 6.4 0.00 0.00 0.00 39 1013.5
20260509011007 20 105 3.2 6.4 0.00 0.00 0.00 38 1013.4
20260509010515 20 113 1.6 4.8 0.00 0.00 0.00 37 1013.3
20260509010028 20 130 0.0 4.8 0.00 0.00 0.00 37 1013.3
20260509005509 20 78 1.6 4.8 0.00 0.00 0.00 36 1013.3
20260509005010 20 205 0.0 4.8 0.00 0.00 0.00 36 1013.3
20260509004517 20 150 1.6 4.8 0.00 0.00 0.00 36 1013.3
20260509004007 20 155 0.0 6.4 0.00 0.00 0.00 36 1013.4
20260509003509 20 166 0.0 6.4 0.00 0.00 0.00 36 1013.3
20260509003024 20 100 1.6 6.4 0.00 0.00 0.00 37 1013.3
20260509002513 21 115 1.6 6.4 0.00 0.00 0.00 36 1013.3
20260509002010 21 92 1.6 6.4 0.00 0.00 0.00 36 1013.3
20260509001529 21 61 1.6 6.4 0.00 0.00 0.00 35 1013.3
20260509001010 21 55 1.6 8.0 0.00 0.00 0.00 35 1013.3
20260509000508 21 84 3.2 8.0 0.00 0.00 0.00 35 1013.3
20260509000016 21 74 3.2 6.4 0.00 0.00 0.00 34 1013.4
20260508235507 21 40 1.6 11.3 0.00 0.00 0.00 34 1013.4
20260508235012 21 86 3.2 12.9 0.00 0.00 0.00 34 1013.4
20260508234529 21 149 3.2 12.9 0.00 0.00 0.00 34 1013.4
20260508234011 21 42 3.2 6.4 0.00 0.00 0.00 35 1013.4
20260508233512 21 165 1.6 6.4 0.00 0.00 0.00 35 1013.4
20260508233030 21 44 1.6 6.4 0.00 0.00 0.00 34 1013.4
20260508232507 21 75 3.2 9.7 0.00 0.00 0.00 35 1013.4
20260508232010 21 69 1.6 9.7 0.00 0.00 0.00 35 1013.3
20260508231521 21 65 1.6 9.7 0.00 0.00 0.00 34 1013.3
20260508231007 21 173 4.8 9.7 0.00 0.00 0.00 33 1013.4
20260508230510 22 104 3.2 9.7 0.00 0.00 0.00 34 1013.5
20260508230039 22 103 0.0 9.7 0.00 0.00 0.00 34 1013.5
20260508225513 22 183 1.6 9.7 0.00 0.00 0.00 35 1013.4
20260508225009 22 184 1.6 6.4 0.00 0.00 0.00 34 1013.4
20260508224523 22 136 1.6 6.4 0.00 0.00 0.00 34 1013.5
20260508224006 21 59 3.2 6.4 0.00 0.00 0.00 35 1013.4
20260508223509 21 96 1.6 8.0 0.00 0.00 0.00 35 1013.4
20260508223028 22 36 3.2 8.0 0.00 0.00 0.00 35 1013.5
20260508222511 21 275 1.6 9.7 0.00 0.00 0.00 36 1013.5
20260508222010 21 197 3.2 9.7 0.00 0.00 0.00 35 1013.6
20260508221531 21 157 3.2 4.8 0.00 0.00 0.00 36 1013.6
20260508221009 21 301 1.6 4.8 0.00 0.00 0.00 36 1013.7
20260508220507 21 61 3.2 14.5 0.00 0.00 0.00 36 1013.8
20260508220026 21 284 3.2 19.3 0.00 0.00 0.00 37 1013.8
20260508215512 21 17 6.4 17.7 0.00 0.00 0.00 37 1013.8
20260508215013 21 57 3.2 16.1 0.00 0.00 0.00 37 1013.8
20260508214530 20 45 6.4 17.7 0.00 0.00 0.00 37 1013.8
20260508214009 20 9 8.0 17.7 0.00 0.00 0.00 37 1013.9
20260508213513 21 15 4.8 12.9 0.00 0.00 0.00 36 1014.0
20260508213037 20 319 3.2 12.9 0.00 0.00 0.00 36 1014.0
20260508212508 20 223 3.2 9.7 0.00 0.00 0.00 38 1014.1
20260508212012 20 19 1.6 8.0 0.00 0.00 0.00 38 1014.1
20260508211534 20 68 3.2 12.9 0.00 0.00 0.00 37 1014.3
20260508211011 20 230 4.8 12.9 0.00 0.00 0.00 37 1014.4
20260508210511 20 250 3.2 19.3 0.00 0.00 0.00 38 1014.4
20260508210028 20 63 8.0 17.7 0.00 0.00 0.00 38 1014.5
20260508205510 20 71 4.8 17.7 0.00 0.00 0.00 40 1014.5
20260508205012 20 344 1.6 14.5 0.00 0.00 0.00 38 1014.7
20260508204520 19 76 4.8 14.5 0.00 0.00 0.00 40 1014.7
20260508204010 20 29 8.0 14.5 0.00 0.00 0.00 38 1014.8
20260508203509 20 103 3.2 14.5 0.00 0.00 0.00 37 1014.8
20260508203032 19 79 3.2 12.9 0.00 0.00 0.00 39 1014.9
20260508202509 19 65 4.8 16.1 0.00 0.00 0.00 39 1014.9
20260508202007 19 336 6.4 16.1 0.00 0.00 0.00 39 1015.0
20260508201516 19 57 1.6 12.9 0.00 0.00 0.00 38 1015.0
20260508201008 19 360 6.4 16.1 0.00 0.00 0.00 38 1015.0
20260508200507 19 76 4.8 16.1 0.00 0.00 0.00 39 1015.1
20260508200024 19 336 3.2 9.7 0.00 0.00 0.00 38 1015.2
20260508195507 19 329 3.2 9.7 0.00 0.00 0.00 39 1015.2
20260508195003 19 360 4.8 12.9 0.00 0.00 0.00 38 1015.3
20260508194523 20 23 6.4 12.9 0.00 0.00 0.00 39 1015.3
20260508194006 20 9 1.6 8.0 0.00 0.00 0.00 39 1015.4
20260508193507 19 75 4.8 8.0 0.00 0.00 0.00 43 1015.4
20260508193016 18 345 4.8 9.7 0.00 0.00 0.00 41 1015.4
20260508192513 18 67 1.6 12.9 0.00 0.00 0.00 43 1015.4
20260508192012 18 52 6.4 12.9 0.00 0.00 0.00 41 1015.6
20260508191505 18 69 1.6 14.5 0.00 0.00 0.00 43 1015.6
20260508191004 18 24 4.8 14.5 0.00 0.00 0.00 41 1015.7
20260508190506 18 55 3.2 9.7 0.00 0.00 0.00 43 1015.8
20260508190014 18 135 1.6 12.9 0.00 0.00 0.00 44 1015.8
20260508185504 17 144 3.2 14.5 0.00 0.00 0.00 47 1016.0
20260508185012 17 71 4.8 16.1 0.00 0.00 0.00 46 1016.0
20260508184521 17 76 3.2 16.1 0.00 0.00 0.00 45 1015.9
20260508184008 17 58 4.8 11.3 0.00 0.00 0.00 44 1015.9
20260508183503 17 328 4.8 19.3 0.00 0.00 0.00 45 1016.1
20260508183007 17 43 9.7 19.3 0.00 0.00 0.00 46 1016.1
20260508182507 17 5 9.7 16.1 0.00 0.00 0.00 45 1016.1
20260508182006 16 129 4.8 14.5 0.00 0.00 0.00 46 1016.2
20260508181517 16 73 4.8 14.5 0.00 0.00 0.00 46 1016.1
20260508181010 17 30 3.2 14.5 0.00 0.00 0.00 44 1016.2
20260508180514 17 42 4.8 11.3 0.00 0.00 0.00 45 1016.3
20260508180027 16 5 0.0 11.3 0.00 0.00 0.00 45 1016.3
20260508175504 16 95 3.2 16.1 0.00 0.00 0.00 44 1016.3
20260508175010 17 86 4.8 16.1 0.00 0.00 0.00 46 1016.4
20260508174513 17 50 4.8 12.9 0.00 0.00 0.00 45 1016.4
20260508174007 17 352 4.8 17.7 0.00 0.00 0.00 44 1016.5
20260508173508 16 24 4.8 19.3 0.00 0.00 0.00 46 1016.6
20260508173022 16 352 8.0 19.3 0.00 0.00 0.00 46 1016.6
20260508172517 16 95 3.2 17.7 0.00 0.00 0.00 46 1016.5
20260508172015 17 36 4.8 12.9 0.00 0.00 0.00 45 1016.4
20260508171526 17 11 4.8 12.9 0.00 0.00 0.00 46 1016.5
20260508171010 16 69 4.8 12.9 0.00 0.00 0.00 46 1016.6
20260508170510 16 60 4.8 12.9 0.00 0.00 0.00 45 1016.6
20260508170013 16 113 3.2 14.5 0.00 0.00 0.00 47 1016.6
20260508165504 16 5 4.8 14.5 0.00 0.00 0.00 46 1016.7
20260508165006 16 22 3.2 14.5 0.00 0.00 0.00 46 1016.8
20260508164524 16 42 1.6 9.7 0.00 0.00 0.00 49 1016.8
20260508164010 16 111 3.2 9.7 0.00 0.00 0.00 48 1016.8
20260508163511 16 32 1.6 11.3 0.00 0.00 0.00 48 1016.8
20260508163028 16 156 3.2 11.3 0.00 0.00 0.00 47 1016.8
20260508162507 16 136 3.2 9.7 0.00 0.00 0.00 47 1016.8
20260508162013 16 79 1.6 9.7 0.00 0.00 0.00 49 1016.8
20260508161520 16 82 3.2 8.0 0.00 0.00 0.00 51 1016.8
20260508161010 16 94 1.6 9.7 0.00 0.00 0.00 52 1016.8
20260508160514 16 147 3.2 9.7 0.00 0.00 0.00 53 1016.8
20260508160027 15 59 1.6 14.5 0.00 0.00 0.00 53 1016.9
20260508155511 15 79 4.8 14.5 0.00 0.00 0.00 54 1016.9
20260508155014 15 93 4.8 14.5 0.00 0.00 0.00 55 1016.8
20260508154544 15 165 1.6 6.4 0.00 0.00 0.00 54 1016.8
20260508154009 15 107 1.6 9.7 0.00 0.00 0.00 54 1016.8
20260508153510 15 81 1.6 9.7 0.00 0.00 0.00 53 1016.7
20260508153024 15 113 1.6 11.3 0.00 0.00 0.00 54 1016.8
20260508152507 15 103 3.2 12.9 0.00 0.00 0.00 55 1016.7
20260508152012 14 92 3.2 12.9 0.00 0.00 0.00 59 1016.7
20260508151526 13 86 3.2 6.4 0.00 0.00 0.00 62 1016.6
20260508151015 13 146 0.0 9.7 0.00 0.00 0.00 63 1016.5
20260508150513 12 94 1.6 9.7 0.00 0.00 0.00 63 1016.6
20260508150017 12 161 1.6 9.7 0.00 0.00 0.00 64 1016.6
20260508145510 13 133 0.0 9.7 0.00 0.00 0.00 62 1016.6
20260508145009 13 128 3.2 8.0 0.00 0.00 0.00 62 1016.7
20260508144524 12 133 1.6 8.0 0.00 0.00 0.00 62 1016.8
20260508144013 12 149 1.6 8.0 0.00 0.00 0.00 62 1016.8
20260508143511 12 173 3.2 9.7 0.00 0.00 0.00 61 1016.8
20260508143029 12 169 1.6 9.7 0.00 0.00 0.00 63 1016.7
20260508142511 12 213 3.2 8.0 0.00 0.00 0.00 66 1016.8
20260508142012 12 124 1.6 4.8 0.00 0.00 0.00 67 1016.9
20260508141530 11 171 1.6 6.4 0.00 0.00 0.00 71 1017.1
20260508141011 11 197 1.6 6.4 0.00 0.00 0.00 72 1017.1
20260508140502 11 192 1.6 6.4 0.00 0.00 0.00 74 1017.2
20260508140008 10 191 1.6 4.8 0.00 0.00 0.00 77 1017.2
20260508135509 10 109 1.6 3.2 0.00 0.00 0.00 80 1017.2
20260508135012 9 178 0.0 3.2 0.00 0.00 0.00 82 1017.3
20260508134517 8 193 0.0 3.2 0.00 0.00 0.00 83 1017.3
20260508134006 8 194 0.0 3.2 0.00 0.00 0.00 86 1017.5
20260508133509 7 63 1.6 3.2 0.00 0.00 0.00 87 1017.5
20260508133043 7 119 1.6 3.2 0.00 0.00 0.00 89 1017.5
20260508132504 6 174 0.0 3.2 0.00 0.00 0.00 89 1017.4
20260508132004 6 117 0.0 3.2 0.00 0.00 0.00 88 1017.4
20260508131509 6 151 0.0 3.2 0.00 0.00 0.00 88 1017.4
20260508131007 6 178 0.0 3.2 0.00 0.00 0.00 89 1017.4
20260508130507 6 178 0.0 3.2 0.00 0.00 0.00 89 1017.5
20260508130025 6 186 0.0 3.2 0.00 0.00 0.00 89 1017.5
20260508125509 6 186 0.0 3.2 0.00 0.00 0.00 89 1017.6
20260508125009 6 192 0.0 3.2 0.00 0.00 0.00 90 1017.6
20260508124504 5 68 1.6 3.2 0.00 0.00 0.00 90 1017.6
20260508124006 5 181 0.0 3.2 0.00 0.00 0.00 90 1017.7
20260508123509 5 144 0.0 6.4 0.00 0.00 0.00 91 1017.7
20260508123025 5 141 0.0 6.4 0.00 0.00 0.00 91 1017.6
20260508122507 5 223 3.2 6.4 0.00 0.00 0.00 92 1017.5
20260508122011 5 189 1.6 3.2 0.00 0.00 0.00 93 1017.8
20260508121530 5 95 0.0 3.2 0.00 0.00 0.00 93 1018.0
20260508121010 5 58 0.0 3.2 0.00 0.00 0.00 93 1017.9
20260508120503 4 41 0.0 3.2 0.00 0.00 0.00 93 1017.7
20260508120012 4 41 1.6 3.2 0.00 0.00 0.00 93 1017.5
20260508115507 4 240 0.0 3.2 0.00 0.00 0.00 93 1017.1
20260508115007 4 240 0.0 3.2 0.00 0.00 0.00 93 1016.9
20260508114524 3 229 1.6 3.2 0.00 0.00 0.00 92 1016.6
20260508114007 3 221 0.0 3.2 0.00 0.00 0.00 92 1016.4
20260508113508 3 221 0.0 3.2 0.00 0.00 0.00 92 1016.5
20260508113028 3 227 0.0 1.6 0.00 0.00 0.00 92 1016.4
20260508112504 3 234 0.0 3.2 0.00 0.00 0.00 92 1016.4
20260508112003 3 234 0.0 3.2 0.00 0.00 0.00 92 1016.5
20260508111516 3 231 0.0 3.2 0.00 0.00 0.00 92 1016.5
20260508111008 3 231 0.0 3.2 0.00 0.00 0.00 92 1016.6
20260508110508 4 231 0.0 3.2 0.00 0.00 0.00 92 1016.5
20260508110004 4 222 1.6 3.2 0.00 0.00 0.00 91 1016.4
20260508105503 4 301 0.0 3.2 0.00 0.00 0.00 91 1016.4
20260508105004 4 336 0.0 3.2 0.00 0.00 0.00 91 1016.5
20260508104508 4 211 1.6 3.2 0.00 0.00 0.00 91 1016.4
20260508104003 4 195 0.0 3.2 0.00 0.00 0.00 91 1016.3
20260508103506 4 195 0.0 3.2 0.00 0.00 0.00 91 1016.2
20260508103018 4 188 0.0 3.2 0.00 0.00 0.00 91 1016.1
20260508102508 4 188 1.6 3.2 0.00 0.00 0.00 91 1016.1
20260508102010 4 56 0.0 3.2 0.00 0.00 0.00 91 1016.1
20260508101505 4 60 0.0 3.2 0.00 0.00 0.00 91 1015.8
20260508101004 4 81 0.0 4.8 0.00 0.00 0.00 91 1015.6
20260508100507 4 45 0.0 4.8 0.00 0.00 0.00 91 1015.5
20260508100012 4 44 1.6 3.2 0.00 0.00 0.00 91 1015.2
20260508095505 4 188 0.0 3.2 0.00 0.00 0.00 90 1015.1
20260508095007 4 189 0.0 3.2 0.00 0.00 0.00 90 1015.1
20260508094522 4 189 0.0 3.2 0.00 0.00 0.00 90 1015.2
20260508094008 5 189 0.0 3.2 0.00 0.00 0.00 90 1015.3
20260508093504 5 188 0.0 3.2 0.00 0.00 0.00 90 1015.3
20260508093011 5 189 1.6 3.2 0.00 0.00 0.00 89 1015.3
20260508092505 5 183 0.0 3.2 0.00 0.00 0.00 89 1015.2
20260508092004 5 183 0.0 3.2 0.00 0.00 0.00 89 1015.2
20260508091515 5 183 0.0 3.2 0.00 0.00 0.00 89 1015.2
20260508091012 5 183 0.0 3.2 0.00 0.00 0.00 88 1015.3
20260508090507 5 183 0.0 3.2 0.00 0.00 0.00 88 1015.4
20260508090043 5 183 0.0 3.2 0.00 0.00 0.00 88 1015.4
20260508085502 5 183 0.0 1.6 0.00 0.00 0.00 88 1015.6
20260508085002 5 183 0.0 1.6 0.00 0.00 0.00 88 1015.6
20260508084507 6 183 0.0 3.2 0.00 0.00 0.00 87 1015.6
20260508084008 6 183 0.0 3.2 0.00 0.00 0.00 88 1015.7
20260508083507 6 183 0.0 3.2 0.00 0.00 0.00 87 1015.7
20260508083024 6 182 0.0 3.2 0.00 0.00 0.00 87 1015.8
20260508082509 6 182 0.0 3.2 0.00 0.00 0.00 87 1015.8
20260508082010 6 168 0.0 3.2 0.00 0.00 0.00 86 1015.8
20260508081504 6 84 0.0 3.2 0.00 0.00 0.00 86 1015.9
20260508081003 6 82 0.0 3.2 0.00 0.00 0.00 85 1016.0
20260508080507 6 57 0.0 1.6 0.00 0.00 0.00 86 1016.1
20260508080014 7 142 0.0 3.2 0.00 0.00 0.00 86 1016.1
20260508075507 7 214 0.0 3.2 0.00 0.00 0.00 86 1016.2
20260508075008 7 229 1.6 3.2 0.00 0.00 0.00 86 1016.3
20260508074526 7 236 0.0 3.2 0.00 0.00 0.00 86 1016.4
20260508074009 7 238 0.0 3.2 0.00 0.00 0.00 85 1016.6
20260508073503 7 220 0.0 3.2 0.00 0.00 0.00 85 1016.6
20260508073007 7 72 0.0 3.2 0.00 0.00 0.00 85 1016.5
20260508072503 7 92 0.0 3.2 0.00 0.00 0.00 85 1016.4
20260508072004 7 92 0.0 3.2 0.00 0.00 0.00 84 1016.3
20260508071518 7 92 0.0 3.2 0.00 0.00 0.00 85 1016.3
20260508071008 7 39 0.0 3.2 0.00 0.00 0.00 85 1016.3
20260508070513 7 39 0.0 3.2 0.00 0.00 0.00 84 1016.2
20260508070027 8 36 0.0 3.2 0.00 0.00 0.00 84 1016.1
20260508065504 8 47 0.0 3.2 0.00 0.00 0.00 84 1016.2
20260508065008 8 47 0.0 3.2 0.00 0.00 0.00 84 1016.1
20260508064512 8 51 0.0 3.2 0.00 0.00 0.00 83 1015.9
20260508064006 8 51 0.0 3.2 0.00 0.00 0.00 82 1015.9
20260508063507 8 52 0.0 3.2 0.00 0.00 0.00 81 1015.7
20260508063020 8 52 0.0 3.2 0.00 0.00 0.00 81 1015.8
20260508062507 9 56 0.0 3.2 0.00 0.00 0.00 80 1015.7
20260508062011 9 177 0.0 3.2 0.00 0.00 0.00 79 1015.6
20260508061506 9 214 0.0 4.8 0.00 0.00 0.00 78 1015.6
20260508061006 9 225 1.6 4.8 0.00 0.00 0.00 78 1015.6
20260508060506 10 167 0.0 4.8 0.00 0.00 0.00 77 1015.6
20260508060017 10 129 0.0 3.2 0.00 0.00 0.00 77 1015.5
20260508055506 10 129 0.0 3.2 0.00 0.00 0.00 74 1015.4
20260508055012 11 129 0.0 3.2 0.00 0.00 0.00 74 1015.6
20260508054534 11 128 0.0 3.2 0.00 0.00 0.00 73 1015.3
20260508054013 11 128 1.6 4.8 0.00 0.00 0.00 69 1015.7
20260508053503 11 244 0.0 4.8 0.00 0.00 0.00 69 1016.5
20260508053013 12 259 0.0 3.2 0.00 0.00 0.00 67 1016.5
20260508052507 12 259 0.0 4.8 0.00 0.00 0.00 61 1016.6
20260508052007 12 256 0.0 4.8 0.00 0.00 0.00 61 1016.6
20260508051523 11 251 0.0 3.2 0.00 0.00 0.00 63 1016.3
20260508051013 11 242 0.0 3.2 0.00 0.00 0.00 63 1015.8
20260508050509 11 240 0.0 3.2 0.00 0.00 0.00 63 1015.4
20260508050031 12 240 0.0 3.2 0.00 0.00 0.00 63 1015.2
20260508045510 12 241 0.0 3.2 0.00 0.00 0.00 61 1015.4
20260508045005 12 241 0.0 3.2 0.00 0.00 0.00 61 1015.2
20260508044511 12 241 0.0 3.2 0.00 0.00 0.00 60 1015.1
20260508044006 12 236 0.0 3.2 0.00 0.00 0.00 60 1015.2
20260508043505 12 199 0.0 1.6 0.00 0.00 0.00 59 1015.1
20260508043024 12 175 0.0 3.2 0.00 0.00 0.00 58 1015.0
20260508042508 12 175 0.0 4.8 0.00 0.00 0.00 58 1015.0
20260508042008 13 136 0.0 4.8 0.00 0.00 0.00 57 1014.9
20260508041526 13 95 1.6 4.8 0.00 0.00 0.00 56 1015.1
20260508041005 13 109 1.6 3.2 0.00 0.00 0.00 56 1015.2
20260508040507 13 107 1.6 6.4 0.00 0.00 0.00 55 1015.2
20260508040017 14 85 0.0 11.3 0.00 0.00 0.00 54 1015.4
20260508035509 14 19 3.2 12.9 0.00 0.00 0.00 51 1015.5
20260508035007 14 360 4.8 12.9 0.00 0.00 0.00 48 1015.4
20260508034538 14 23 1.6 4.8 0.00 0.00 0.00 47 1015.2
20260508034007 14 346 1.6 4.8 0.00 0.00 0.00 47 1015.1
20260508033509 14 34 1.6 3.2 0.00 0.00 0.00 48 1014.7
20260508033010 14 24 0.0 4.8 0.00 0.00 0.00 46 1014.6
20260508032505 14 40 1.6 4.8 0.00 0.00 0.00 46 1014.5
20260508032009 14 50 1.6 3.2 0.00 0.00 0.00 46 1014.4
20260508031521 15 5 0.0 3.2 0.00 0.00 0.00 44 1014.4
20260508031010 15 321 0.0 3.2 0.00 0.00 0.00 43 1014.3
20260508030510 15 320 0.0 3.2 0.00 0.00 0.00 43 1014.1
20260508030027 15 331 0.0 3.2 0.00 0.00 0.00 44 1013.9
20260508025511 15 34 0.0 4.8 0.00 0.00 0.00 42 1013.9
20260508025007 15 167 0.0 4.8 0.00 0.00 0.00 41 1013.9
20260508024532 15 168 0.0 8.0 0.00 0.00 0.00 41 1013.9
20260508024008 16 268 3.2 8.0 0.00 0.00 0.00 39 1013.8
20260508023508 16 163 0.0 9.7 0.00 0.00 0.00 39 1013.8
20260508023023 16 198 1.6 9.7 0.00 0.00 0.00 38 1013.8
20260508022516 16 186 1.6 22.5 0.00 0.00 0.00 38 1013.7
20260508022010 16 221 3.2 22.5 0.00 0.00 0.00 38 1013.6
20260508021530 16 217 6.4 17.7 0.00 0.00 0.00 38 1013.6
20260508021007 16 226 3.2 14.5 0.00 0.00 0.00 39 1013.6
20260508020506 16 199 1.6 8.0 0.00 0.00 0.00 41 1013.6
20260508020019 16 196 1.6 8.0 0.00 0.00 0.00 42 1013.7
20260508015506 16 232 1.6 6.4 0.00 0.00 0.00 42 1013.5
20260508015012 16 191 1.6 6.4 0.00 0.00 0.00 41 1013.3
20260508014526 16 110 0.0 4.8 0.00 0.00 0.00 40 1013.0
20260508014010 17 159 0.0 6.4 0.00 0.00 0.00 39 1013.0